This is the latest recevied weather packets stored in our database for station/object KD2SIG. If no packets are shown the sender has not sent any weather packets the latest 10 day(s).
| Time | Temp. | Humidity | Pressure | Rain* | Wind** | Luminosity | Snow |
|---|---|---|---|---|---|---|---|
| 1787830156 | 20.56° C | 82% | 1013.1 hPa | 0 mm | - | 52 W/m² | - |
| 1787829851 | 20.56° C | 82% | 1013.1 hPa | 0 mm | - | 46 W/m² | - |
| 1787829550 | 20.56° C | 83% | 1013.2 hPa | 0 mm | - | 42 W/m² | - |
| 1787829247 | 20° C | 83% | 1013.2 hPa | 0 mm | - | 38 W/m² | - |
| 1787828942 | 20° C | 83% | 1013.1 hPa | 0 mm | - | 34 W/m² | - |
| 1787828638 | 20° C | 83% | 1013.1 hPa | 0 mm | - | 31 W/m² | - |
| 1787828333 | 20° C | 83% | 1013.1 hPa | 0 mm | - | 24 W/m² | - |
| 1787828032 | 20° C | 83% | 1013 hPa | 0 mm | - | 23 W/m² | - |
| 1787827726 | 20° C | 83% | 1013 hPa | 0 mm | - | 19 W/m² | - |
| 1787827422 | 20° C | 83% | 1012.9 hPa | 0 mm | - | 15 W/m² | - |
| 1787827121 | 20° C | 83% | 1013.3 hPa | 0 mm | - | 11 W/m² | - |
| 1787826821 | 20° C | 83% | 1013 hPa | 0 mm | - | 7 W/m² | - |
| 1787826516 | 20° C | 83% | 1013.1 hPa | 0 mm | - | 3 W/m² | - |
| 1787826212 | 20° C | 83% | 1013.1 hPa | 0 mm | - | 1 W/m² | - |
| 1787825906 | 20° C | 83% | 1013 hPa | 0 mm | - | 0 W/m² | - |
| 1787825601 | 20° C | 82% | 1012.8 hPa | 0 mm | - | 0 W/m² | - |
| 1787825295 | 20° C | 82% | 1013 hPa | 0 mm | - | 0 W/m² | - |
| 1787824993 | 20° C | 82% | 1012.8 hPa | 0 mm | - | 0 W/m² | - |
| 1787824691 | 20° C | 82% | 1013 hPa | 0 mm | - | 0 W/m² | - |
| 1787824386 | 20° C | 82% | 1013.1 hPa | 0 mm | - | 0 W/m² | - |
| 1787824081 | 20° C | 82% | 1012.8 hPa | 0 mm | - | 0 W/m² | - |
| 1787823777 | 20° C | 82% | 1013.1 hPa | 0 mm | - | 0 W/m² | - |
| 1787823476 | 20° C | 82% | 1013.1 hPa | 0 mm | - | 0 W/m² | - |
| 1787823171 | 20° C | 82% | 1013.1 hPa | 0 mm | - | 0 W/m² | - |
| 1787822864 | 20° C | 82% | 1013 hPa | 0 mm | - | 0 W/m² | - |
* Rain latest hour (hover to see other rain measurements)
** Current wind speed in m/s (hover to see current wind gust speed)